,,,PA_Meas_PMT16A,,PR_Meas_QMR101_102,,RH_Meas_QMH101,,SR_Meas_QMS101,,TA_Meas_QMH101,,GenWind,,GenWind,
date,time,status,PA,status,PR,status,RH,status,SR,status,TA,status,DirAvg,status,SpdAvg,
2009-12-28, 00:00:05,VALID,1003.04,VALID,0,VALID,92.0043,VALID,0,VALID,25.3195,VALID,336,VALID,0.152344,
2009-12-28, 00:01:05,VALID,1003.04,VALID,0,VALID,91.8288,VALID,0,VALID,25.3779,VALID,335,VALID,0.282031,
2009-12-28, 00:02:05,VALID,1003.04,VALID,0,VALID,91.6763,VALID,0,VALID,25.4149,VALID,340,VALID,0.664063,
2009-12-28, 00:03:05,VALID,1003.02,VALID,0,VALID,91.5542,VALID,0,VALID,25.4539,VALID,352,VALID,0.450781,
2009-12-28, 00:04:05,VALID,1003,VALID,0,VALID,91.3864,VALID,0,VALID,25.4928,VALID,355,VALID,0,
2009-12-28, 00:05:05,VALID,1002.98,VALID,0,VALID,91.2872,VALID,0.100563,VALID,25.5532,VALID,311,VALID,0.133594,
2009-12-28, 00:06:05,VALID,1002.99,VALID,0,VALID,91.1346,VALID,0.100563,VALID,25.5298,VALID,311,VALID,0,
2009-12-28, 00:07:05,VALID,1002.93,VALID,0,VALID,90.982,VALID,0,VALID,25.5921,VALID,311,VALID,0.247266,
2009-12-28, 00:08:05,VALID,1002.95,VALID,0,VALID,90.8523,VALID,0,VALID,25.6097,VALID,343,VALID,0.551172,
2009-12-28, 00:09:05,VALID,1002.93,VALID,0,VALID,90.6158,VALID,0,VALID,25.6097,VALID,342,VALID,0.179688,
2009-12-28, 00:10:05,VALID,1002.9,VALID,0,VALID,90.4175,VALID,0,VALID,25.6486,VALID,343,VALID,0,
2009-12-28, 00:11:05,VALID,1002.89,VALID,0,VALID,90.3488,VALID,0,VALID,25.6486,VALID,343,VALID,0,
2009-12-28, 00:12:05,VALID,1002.87,VALID,0,VALID,90.3259,VALID,0,VALID,25.67,VALID,336,VALID,0.6875,
2009-12-28, 00:13:05,VALID,1002.87,VALID,0,VALID,90.3031,VALID,0,VALID,25.6895,VALID,314,VALID,0.0195313,
2009-12-28, 00:14:05,VALID,1002.85,VALID,0,VALID,90.2725,VALID,0.100563,VALID,25.6681,VALID,314,VALID,0.305078,
2009-12-28, 00:15:05,VALID,1002.83,VALID,0,VALID,90.2725,VALID,0,VALID,25.6662,VALID,321,VALID,0.407422,
2009-12-28, 00:16:05,VALID,1002.8,VALID,0,VALID,90.3031,VALID,0.100563,VALID,25.6681,VALID,330,VALID,0.266406,
2009-12-28, 00:17:05,VALID,1002.81,VALID,0,VALID,90.3031,VALID,0,VALID,25.6681,VALID,331,VALID,0.187891,
2009-12-28, 00:18:05,VALID,1002.79,VALID,0,VALID,90.3031,VALID,0.100563,VALID,25.6681,VALID,341,VALID,0.425781,
2009-12-28, 00:19:05,VALID,1002.75,VALID,0,VALID,90.2649,VALID,0,VALID,25.6681,VALID,341,VALID,0.632813,
2009-12-28, 00:20:05,VALID,1002.7,VALID,0,VALID,90.1886,VALID,0,VALID,25.6876,VALID,342,VALID,0.449609,
2009-12-28, 00:21:05,VALID,1002.72,VALID,0,VALID,90.1047,VALID,0,VALID,25.709,VALID,342,VALID,0.0503906,
2009-12-28, 00:22:05,VALID,1002.68,VALID,0,VALID,90.0742,VALID,0,VALID,25.7265,VALID,351,VALID,0.454688,
2009-12-28, 00:23:05,VALID,1002.64,VALID,0,VALID,89.9674,VALID,0,VALID,25.748,VALID,350,VALID,0.483203,
2009-12-28, 00:24:05,VALID,1002.65,VALID,0,VALID,89.8835,VALID,0,VALID,25.7674,VALID,350,VALID,0.186328,
2009-12-28, 00:25:05,VALID,1002.61,VALID,0,VALID,89.7538,VALID,0,VALID,25.7071,VALID,331,VALID,0.374219,
2009-12-28, 00:26:05,VALID,1002.6,VALID,0,VALID,89.7156,VALID,0,VALID,25.7071,VALID,342,VALID,0.554297,
2009-12-28, 00:27:05,VALID,1002.61,VALID,0,VALID,89.8148,VALID,0,VALID,25.7071,VALID,351,VALID,0.38125,
2009-12-28, 00:28:05,VALID,1002.6,VALID,0,VALID,89.8148,VALID,0,VALID,25.7071,VALID,344,VALID,0.649609,
2009-12-28, 00:29:05,VALID,1002.63,VALID,0,VALID,89.6546,VALID,0,VALID,25.746,VALID,342,VALID,0.357031,
2009-12-28, 00:30:05,VALID,1002.62,VALID,0,VALID,89.5402,VALID,0,VALID,25.7674,VALID,342,VALID,0.401172,
2009-12-28, 00:31:05,VALID,1002.64,VALID,0,VALID,89.441,VALID,0.100563,VALID,25.7674,VALID,335,VALID,0.703125,
2009-12-28, 00:32:05,VALID,1002.64,VALID,0,VALID,89.4028,VALID,0,VALID,25.7655,VALID,347,VALID,0.174609,
2009-12-28, 00:33:05,VALID,1002.63,VALID,0,VALID,89.3723,VALID,0,VALID,25.8259,VALID,347,VALID,0.580078,
2009-12-28, 00:34:05,VALID,1002.61,VALID,0,VALID,89.2579,VALID,0,VALID,25.8044,VALID,346,VALID,0.253125,
2009-12-28, 00:35:05,VALID,1002.61,VALID,0,VALID,89.1892,VALID,0,VALID,25.8044,VALID,346,VALID,0,
2009-12-28, 00:36:05,VALID,1002.58,VALID,0,VALID,89.0748,VALID,0,VALID,25.8453,VALID,346,VALID,0,
2009-12-28, 00:37:05,VALID,1002.56,VALID,0,VALID,88.9909,VALID,0,VALID,25.8239,VALID,347,VALID,0,
2009-12-28, 00:38:05,VALID,1002.53,VALID,0,VALID,88.8841,VALID,0,VALID,25.8044,VALID,347,VALID,0,
2009-12-28, 00:39:05,VALID,1002.52,VALID,0,VALID,88.968,VALID,0.100563,VALID,25.785,VALID,347,VALID,0,
2009-12-28, 00:40:05,VALID,1002.49,VALID,0,VALID,89.174,VALID,0,VALID,25.746,VALID,360,VALID,0,
2009-12-28, 00:41:05,VALID,1002.45,VALID,0,VALID,89.2198,VALID,0.100563,VALID,25.746,VALID,356,VALID,0,
2009-12-28, 00:42:05,VALID,1002.4,VALID,0,VALID,89.1892,VALID,0.100563,VALID,25.746,VALID,338,VALID,0,
2009-12-28, 00:43:05,VALID,1002.38,VALID,0,VALID,89.1969,VALID,0,VALID,25.746,VALID,338,VALID,0,
2009-12-28, 00:44:05,VALID,1002.33,VALID,0,VALID,89.2655,VALID,0,VALID,25.746,VALID,338,VALID,0,
2009-12-28, 00:45:05,VALID,1002.29,VALID,0,VALID,89.235,VALID,0,VALID,25.7869,VALID,340,VALID,0.442969,
2009-12-28, 00:46:05,VALID,1002.27,VALID,0,VALID,89.0977,VALID,0,VALID,25.8239,VALID,360,VALID,0.436328,
2009-12-28, 00:47:05,VALID,1002.26,VALID,0,VALID,88.9451,VALID,0,VALID,25.8434,VALID,352,VALID,0.482422,
2009-12-28, 00:48:05,VALID,1002.21,VALID,0,VALID,88.7697,VALID,0,VALID,25.8823,VALID,2,VALID,0.695313,
2009-12-28, 00:49:05,VALID,1002.21,VALID,0,VALID,88.6323,VALID,0,VALID,25.8629,VALID,350,VALID,0.378906,
2009-12-28, 00:50:05,VALID,1002.2,VALID,0,VALID,88.4874,VALID,0,VALID,25.8434,VALID,350,VALID,0.448047,
2009-12-28, 00:51:05,VALID,1002.14,VALID,0,VALID,88.4264,VALID,0,VALID,25.7655,VALID,350,VALID,0.0289063,
2009-12-28, 00:52:05,VALID,1002.14,VALID,0,VALID,88.64,VALID,0,VALID,25.709,VALID,350,VALID,0,
2009-12-28, 00:53:05,VALID,1002.08,VALID,0,VALID,88.9756,VALID,0.100563,VALID,25.5902,VALID,350,VALID,0,
2009-12-28, 00:54:05,VALID,1002.09,VALID,0,VALID,89.3342,VALID,0.100563,VALID,25.5318,VALID,350,VALID,0,
2009-12-28, 00:55:05,VALID,1002.06,VALID,0,VALID,89.6241,VALID,0,VALID,25.4948,VALID,350,VALID,0,
2009-12-28, 00:56:05,VALID,1002.01,VALID,0,VALID,89.8224,VALID,0,VALID,25.4344,VALID,350,VALID,0,
2009-12-28, 00:57:05,VALID,1001.98,VALID,0,VALID,90.0284,VALID,0,VALID,25.4169,VALID,350,VALID,0,
2009-12-28, 00:58:05,VALID,1002,VALID,0,VALID,90.1963,VALID,0,VALID,25.3779,VALID,350,VALID,0,
2009-12-28, 00:59:05,VALID,1001.99,VALID,0,VALID,90.5167,VALID,0,VALID,25.337,VALID,350,VALID,0.375391,
2009-12-28, 01:00:05,VALID,1001.98,VALID,0,VALID,90.6998,VALID,0,VALID,25.337,VALID,350,VALID,0.25,
2009-12-28, 01:01:05,VALID,1001.99,VALID,0,VALID,90.776,VALID,0,VALID,25.337,VALID,350,VALID,0,
2009-12-28, 01:02:04,VALID,1001.98,VALID,0,VALID,90.8752,VALID,0,VALID,25.3176,VALID,350,VALID,0.167969,
2009-12-28, 01:03:04,VALID,1002.01,VALID,0,VALID,90.9897,VALID,0,VALID,25.3565,VALID,350,VALID,0.264062,
2009-12-28, 01:04:04,VALID,1002.01,VALID,0,VALID,90.715,VALID,0.100563,VALID,25.337,VALID,350,VALID,0.284375,
2009-12-28, 01:05:04,VALID,1001.99,VALID,0,VALID,90.6311,VALID,0,VALID,25.2981,VALID,350,VALID,0.253125,
2009-12-28, 01:06:04,VALID,1001.96,VALID,0,VALID,90.6006,VALID,0,VALID,25.2786,VALID,350,VALID,0.229297,
2009-12-28, 01:07:04,VALID,1001.98,VALID,0,VALID,90.7303,VALID,0,VALID,25.2202,VALID,350,VALID,0,
2009-12-28, 01:08:04,VALID,1001.96,VALID,0,VALID,90.921,VALID,0,VALID,25.1618,VALID,350,VALID,0,
2009-12-28, 01:09:04,VALID,1001.94,VALID,0,VALID,91.1728,VALID,0,VALID,25.1229,VALID,357,VALID,0,
2009-12-28, 01:10:04,VALID,1001.93,VALID,0,VALID,91.3558,VALID,0,VALID,25.0644,VALID,358,VALID,0,
2009-12-28, 01:11:04,VALID,1001.89,VALID,0,VALID,91.6,VALID,0,VALID,25.006,VALID,358,VALID,0,
2009-12-28, 01:12:04,VALID,1001.89,VALID,0,VALID,91.7068,VALID,0,VALID,24.9885,VALID,358,VALID,0,
2009-12-28, 01:13:04,VALID,1001.87,VALID,0,VALID,91.8136,VALID,0,VALID,24.969,VALID,358,VALID,0,
2009-12-28, 01:14:04,VALID,1001.84,VALID,0,VALID,91.9585,VALID,0,VALID,24.9087,VALID,358,VALID,0,
2009-12-28, 01:15:04,VALID,1001.82,VALID,0,VALID,91.9585,VALID,0,VALID,24.8911,VALID,358,VALID,0,
2009-12-28, 01:16:04,VALID,1001.8,VALID,0,VALID,92.0119,VALID,0,VALID,24.8308,VALID,358,VALID,0,
2009-12-28, 01:17:04,VALID,1001.74,VALID,0,VALID,92.195,VALID,0,VALID,24.8716,VALID,358,VALID,0,
2009-12-28, 01:18:04,VALID,1001.75,VALID,0,VALID,92.3095,VALID,0,VALID,24.8308,VALID,358,VALID,0,
2009-12-28, 01:19:04,VALID,1001.75,VALID,0,VALID,92.4163,VALID,0,VALID,24.8132,VALID,358,VALID,0,
2009-12-28, 01:20:04,VALID,1001.76,VALID,0,VALID,92.5383,VALID,0,VALID,24.7919,VALID,358,VALID,0,
2009-12-28, 01:21:04,VALID,1001.73,VALID,0,VALID,92.6299,VALID,0,VALID,24.7724,VALID,358,VALID,0,
2009-12-28, 01:22:04,VALID,1001.74,VALID,0,VALID,92.6909,VALID,0,VALID,24.7724,VALID,358,VALID,0,
2009-12-28, 01:23:04,VALID,1001.74,VALID,0,VALID,92.7443,VALID,0,VALID,24.7743,VALID,358,VALID,0,
2009-12-28, 01:24:04,VALID,1001.73,VALID,0,VALID,92.7824,VALID,0,VALID,24.7743,VALID,358,VALID,0,
2009-12-28, 01:25:04,VALID,1001.74,VALID,0,VALID,92.8282,VALID,0,VALID,24.7529,VALID,358,VALID,0,
2009-12-28, 01:26:04,VALID,1001.74,VALID,0,VALID,92.8892,VALID,0,VALID,24.7529,VALID,358,VALID,0,
2009-12-28, 01:27:04,VALID,1001.76,VALID,0,VALID,92.9503,VALID,0,VALID,24.7548,VALID,358,VALID,0,
2009-12-28, 01:28:04,VALID,1001.78,VALID,0,VALID,93.0113,VALID,0,VALID,24.7567,VALID,358,VALID,0,
2009-12-28, 01:29:04,VALID,1001.74,VALID,0,VALID,93.1029,VALID,0,VALID,24.7548,VALID,358,VALID,0,
2009-12-28, 01:30:04,VALID,1001.75,VALID,0,VALID,93.1715,VALID,0,VALID,24.7548,VALID,358,VALID,0,
2009-12-28, 01:31:04,VALID,1001.74,VALID,0,VALID,93.2325,VALID,0,VALID,24.7743,VALID,358,VALID,0,
2009-12-28, 01:32:04,VALID,1001.77,VALID,0,VALID,93.2783,VALID,0,VALID,24.7548,VALID,358,VALID,0,
2009-12-28, 01:33:04,VALID,1001.76,VALID,0,VALID,93.2859,VALID,0,VALID,24.7548,VALID,358,VALID,0,
2009-12-28, 01:34:04,VALID,1001.76,VALID,0,VALID,93.3394,VALID,0,VALID,24.7529,VALID,358,VALID,0,
2009-12-28, 01:35:04,VALID,1001.75,VALID,0,VALID,93.3622,VALID,0,VALID,24.7724,VALID,358,VALID,0,
2009-12-28, 01:36:04,VALID,1001.76,VALID,0,VALID,93.3928,VALID,0,VALID,24.7743,VALID,358,VALID,0,
2009-12-28, 01:37:04,VALID,1001.75,VALID,0,VALID,93.4156,VALID,0,VALID,24.7724,VALID,358,VALID,0,
2009-12-28, 01:38:04,VALID,1001.73,VALID,0,VALID,93.3775,VALID,0,VALID,24.7743,VALID,358,VALID,0,
2009-12-28, 01:39:04,VALID,1001.72,VALID,0,VALID,93.3165,VALID,0,VALID,24.7335,VALID,358,VALID,0,
2009-12-28, 01:40:04,VALID,1001.73,VALID,0,VALID,93.2936,VALID,0,VALID,24.7529,VALID,358,VALID,0,
2009-12-28, 01:41:04,VALID,1001.75,VALID,0,VALID,93.2631,VALID,0,VALID,24.7529,VALID,358,VALID,0,
2009-12-28, 01:42:04,VALID,1001.73,VALID,0,VALID,93.2402,VALID,0,VALID,24.7529,VALID,358,VALID,0,
2009-12-28, 01:43:04,VALID,1001.74,VALID,0,VALID,93.1563,VALID,0,VALID,24.714,VALID,358,VALID,0,
2009-12-28, 01:44:04,VALID,1001.75,VALID,0,VALID,93.0876,VALID,0,VALID,24.6945,VALID,358,VALID,0,
2009-12-28, 01:45:04,VALID,1001.72,VALID,0,VALID,93.08,VALID,0,VALID,24.6945,VALID,358,VALID,0,
2009-12-28, 01:46:04,VALID,1001.74,VALID,0,VALID,93.0723,VALID,0,VALID,24.6769,VALID,358,VALID,0,
2009-12-28, 01:47:04,VALID,1001.73,VALID,0,VALID,93.0723,VALID,0,VALID,24.6574,VALID,358,VALID,0,
2009-12-28, 01:48:04,VALID,1001.73,VALID,0,VALID,93.0952,VALID,0,VALID,24.6166,VALID,358,VALID,0,
2009-12-28, 01:49:04,VALID,1001.68,VALID,0,VALID,93.2173,VALID,0,VALID,24.638,VALID,358,VALID,0,
2009-12-28, 01:50:04,VALID,1001.7,VALID,0,VALID,93.3165,VALID,0,VALID,24.6166,VALID,358,VALID,0,
2009-12-28, 01:51:04,VALID,1001.67,VALID,0,VALID,93.3012,VALID,0,VALID,24.5972,VALID,358,VALID,0,
2009-12-28, 01:52:04,VALID,1001.69,VALID,0,VALID,93.3165,VALID,0,VALID,24.599,VALID,358,VALID,0,
2009-12-28, 01:53:04,VALID,1001.65,VALID,0,VALID,93.4233,VALID,0,VALID,24.5972,VALID,358,VALID,0,
2009-12-28, 01:54:04,VALID,1001.65,VALID,0,VALID,93.5453,VALID,0,VALID,24.6556,VALID,358,VALID,0,
2009-12-28, 01:55:04,VALID,1001.64,VALID,0,VALID,93.5987,VALID,0,VALID,24.6556,VALID,358,VALID,0,
2009-12-28, 01:56:04,VALID,1001.63,VALID,0,VALID,93.6445,VALID,0,VALID,24.6964,VALID,358,VALID,0,
2009-12-28, 01:57:04,VALID,1001.63,VALID,0,VALID,93.6979,VALID,0,VALID,24.714,VALID,358,VALID,0,
2009-12-28, 01:58:04,VALID,1001.63,VALID,0,VALID,93.7132,VALID,0,VALID,24.7335,VALID,358,VALID,0,
2009-12-28, 01:59:04,VALID,1001.59,VALID,0,VALID,93.7132,VALID,0,VALID,24.7724,VALID,358,VALID,0,
2009-12-28, 02:00:04,VALID,1001.6,VALID,0,VALID,93.7284,VALID,0,VALID,24.8113,VALID,358,VALID,0,
2009-12-28, 02:01:04,VALID,1001.6,VALID,0,VALID,93.6979,VALID,0,VALID,24.8503,VALID,360,VALID,0,
2009-12-28, 02:02:04,VALID,1001.58,VALID,0,VALID,93.6903,VALID,0,VALID,24.8892,VALID,18,VALID,0,
2009-12-28, 02:03:04,VALID,1001.57,VALID,0,VALID,93.5606,VALID,0,VALID,24.9087,VALID,18,VALID,0,
2009-12-28, 02:04:04,VALID,1001.53,VALID,0,VALID,93.4462,VALID,0,VALID,24.9282,VALID,18,VALID,0,
2009-12-28, 02:05:04,VALID,1001.51,VALID,0,VALID,93.3851,VALID,0,VALID,24.9866,VALID,20,VALID,0.654688,
2009-12-28, 02:06:04,VALID,1001.5,VALID,0,VALID,93.2936,VALID,0,VALID,25.0858,VALID,22,VALID,0.748047,
2009-12-28, 02:07:04,VALID,1001.48,VALID,0,VALID,93.1257,VALID,0,VALID,25.1423,VALID,25,VALID,0.694531,
2009-12-28, 02:08:04,VALID,1001.47,VALID,0,VALID,92.8358,VALID,0,VALID,25.1832,VALID,50,VALID,0.598047,
2009-12-28, 02:09:04,VALID,1001.46,VALID,0,VALID,92.5383,VALID,0,VALID,25.2007,VALID,49,VALID,0.388281,
2009-12-28, 02:10:04,VALID,1001.47,VALID,0,VALID,92.2713,VALID,0,VALID,25.2027,VALID,47,VALID,0.233203,
2009-12-28, 02:11:04,VALID,1001.44,VALID,0,VALID,91.8822,VALID,0,VALID,25.1618,VALID,47,VALID,0,
2009-12-28, 02:12:04,VALID,1001.42,VALID,0,VALID,91.5771,VALID,0,VALID,25.082,VALID,47,VALID,0,
2009-12-28, 02:13:04,VALID,1001.42,VALID,0,VALID,91.7602,VALID,0,VALID,25.0644,VALID,47,VALID,0,
2009-12-28, 02:14:04,VALID,1001.37,VALID,0,VALID,91.7449,VALID,0,VALID,25.0041,VALID,47,VALID,0,
2009-12-28, 02:15:04,VALID,1001.37,VALID,0,VALID,91.7754,VALID,0,VALID,24.9652,VALID,47,VALID,0,
2009-12-28, 02:16:04,VALID,1001.4,VALID,0,VALID,91.8975,VALID,0.100563,VALID,24.9476,VALID,47,VALID,0,
2009-12-28, 02:17:04,VALID,1001.33,VALID,0,VALID,92.0348,VALID,0.100563,VALID,24.9282,VALID,47,VALID,0,
2009-12-28, 02:18:04,VALID,1001.34,VALID,0,VALID,92.2408,VALID,0,VALID,24.9068,VALID,47,VALID,0,
2009-12-28, 02:19:04,VALID,1001.31,VALID,0,VALID,92.3552,VALID,0.100563,VALID,24.9282,VALID,47,VALID,0,
2009-12-28, 02:20:04,VALID,1001.31,VALID,0,VALID,92.5154,VALID,0,VALID,24.9282,VALID,47,VALID,0,
2009-12-28, 02:21:04,VALID,1001.3,VALID,0,VALID,92.6985,VALID,0,VALID,24.9671,VALID,27,VALID,0.998438,
2009-12-28, 02:22:04,VALID,1001.3,VALID,0,VALID,92.8282,VALID,0,VALID,25.0644,VALID,23,VALID,0.635156,
2009-12-28, 02:23:04,VALID,1001.3,VALID,0,VALID,92.6222,VALID,0.100563,VALID,25.0858,VALID,22,VALID,0.346875,
2009-12-28, 02:24:04,VALID,1001.25,VALID,0,VALID,92.4773,VALID,0,VALID,25.0839,VALID,14,VALID,0.570313,
2009-12-28, 02:25:04,VALID,1001.25,VALID,0,VALID,92.3857,VALID,0,VALID,25.1442,VALID,14,VALID,0.24375,
2009-12-28, 02:26:04,VALID,1001.26,VALID,0,VALID,92.2637,VALID,0,VALID,25.1618,VALID,12,VALID,0.368359,
2009-12-28, 02:27:04,VALID,1001.22,VALID,0,VALID,92.1874,VALID,0.100563,VALID,25.2007,VALID,14,VALID,0.36875,
2009-12-28, 02:28:04,VALID,1001.21,VALID,0,VALID,92.0577,VALID,0,VALID,25.2221,VALID,14,VALID,0.301953,
2009-12-28, 02:29:04,VALID,1001.18,VALID,0,VALID,91.8975,VALID,0,VALID,25.2202,VALID,14,VALID,0.408984,
2009-12-28, 02:30:04,VALID,1001.17,VALID,0,VALID,91.8517,VALID,0,VALID,25.2397,VALID,14,VALID,0.707422,
2009-12-28, 02:31:04,VALID,1001.13,VALID,0,VALID,91.7983,VALID,0,VALID,25.2592,VALID,14,VALID,0.442187,
2009-12-28, 02:32:04,VALID,1001.1,VALID,0,VALID,91.7144,VALID,0,VALID,25.2786,VALID,14,VALID,0.851563,
2009-12-28, 02:33:04,VALID,1001.11,VALID,0,VALID,91.5923,VALID,0,VALID,25.2786,VALID,14,VALID,0.433594,
2009-12-28, 02:34:04,VALID,1001.08,VALID,0,VALID,91.455,VALID,0,VALID,25.2786,VALID,14,VALID,0.0148437,
2009-12-28, 02:35:04,VALID,1001.05,VALID,0,VALID,91.4474,VALID,0.100563,VALID,25.2786,VALID,14,VALID,0,
2009-12-28, 02:36:04,VALID,1001.07,VALID,0,VALID,91.4779,VALID,0,VALID,25.2572,VALID,14,VALID,0,
2009-12-28, 02:37:04,VALID,1001.1,VALID,0,VALID,91.455,VALID,0.100563,VALID,25.3195,VALID,14,VALID,0.173438,
2009-12-28, 02:38:04,VALID,1001.09,VALID,0,VALID,91.394,VALID,0.100563,VALID,25.3176,VALID,14,VALID,0.305078,
2009-12-28, 02:39:04,VALID,1001.05,VALID,0,VALID,91.2643,VALID,0,VALID,25.339,VALID,11,VALID,0.343359,
2009-12-28, 02:40:04,VALID,1001.09,VALID,0,VALID,91.1804,VALID,0,VALID,25.3195,VALID,5,VALID,0.184766,
2009-12-28, 02:41:04,VALID,1001.11,VALID,0,VALID,91.1651,VALID,0.100563,VALID,25.2981,VALID,5,VALID,0.338672,
2009-12-28, 02:42:04,VALID,1001.12,VALID,0,VALID,91.1956,VALID,0,VALID,25.3,VALID,5,VALID,0,
2009-12-28, 02:43:04,VALID,1001.12,VALID,0,VALID,91.2109,VALID,0,VALID,25.2786,VALID,5,VALID,0,
2009-12-28, 02:44:04,VALID,1001.14,VALID,0,VALID,91.2796,VALID,0,VALID,25.2592,VALID,5,VALID,0,
2009-12-28, 02:45:04,VALID,1001.2,VALID,0,VALID,91.2643,VALID,0,VALID,25.2806,VALID,5,VALID,0,
2009-12-28, 02:46:04,VALID,1001.2,VALID,0,VALID,91.3024,VALID,0,VALID,25.2592,VALID,5,VALID,0,
2009-12-28, 02:47:04,VALID,1001.23,VALID,0,VALID,91.2796,VALID,0,VALID,25.2416,VALID,5,VALID,0,
2009-12-28, 02:48:04,VALID,1001.22,VALID,0,VALID,91.2262,VALID,0,VALID,25.1813,VALID,5,VALID,0,
2009-12-28, 02:49:04,VALID,1001.21,VALID,0,VALID,91.3406,VALID,0,VALID,25.1423,VALID,5,VALID,0,
2009-12-28, 02:50:04,VALID,1001.2,VALID,0,VALID,91.4703,VALID,0,VALID,25.1423,VALID,5,VALID,0,
2009-12-28, 02:51:04,VALID,1001.19,VALID,0,VALID,91.5542,VALID,0,VALID,25.0839,VALID,5,VALID,0,
2009-12-28, 02:52:04,VALID,1001.18,VALID,0,VALID,91.6534,VALID,0,VALID,25.0255,VALID,5,VALID,0,
2009-12-28, 02:53:04,VALID,1001.19,VALID,0,VALID,91.7449,VALID,0,VALID,25.0079,VALID,5,VALID,0,
2009-12-28, 02:54:04,VALID,1001.2,VALID,0,VALID,91.8975,VALID,0,VALID,24.9476,VALID,5,VALID,0,
2009-12-28, 02:55:04,VALID,1001.21,VALID,0,VALID,92.1111,VALID,0,VALID,24.9282,VALID,5,VALID,0,
2009-12-28, 02:56:04,VALID,1001.23,VALID,0,VALID,92.2713,VALID,0.100563,VALID,24.9068,VALID,5,VALID,0,
2009-12-28, 02:57:04,VALID,1001.26,VALID,0,VALID,92.5078,VALID,0,VALID,24.9282,VALID,5,VALID,0,
2009-12-28, 02:58:04,VALID,1001.28,VALID,0,VALID,92.6299,VALID,0,VALID,24.9495,VALID,5,VALID,0,
2009-12-28, 02:59:04,VALID,1001.32,VALID,0,VALID,92.607,VALID,0,VALID,24.8892,VALID,5,VALID,0,
2009-12-28, 03:00:04,VALID,1001.33,VALID,0,VALID,92.5612,VALID,0,VALID,24.9106,VALID,5,VALID,0,
2009-12-28, 03:01:04,VALID,1001.35,VALID,0,VALID,92.668,VALID,0,VALID,24.8911,VALID,5,VALID,0,
2009-12-28, 03:02:04,VALID,1001.36,VALID,0,VALID,92.7443,VALID,0,VALID,24.8697,VALID,5,VALID,0,
2009-12-28, 03:03:04,VALID,1001.38,VALID,0,VALID,92.7062,VALID,0,VALID,24.8522,VALID,5,VALID,0,
2009-12-28, 03:04:04,VALID,1001.35,VALID,0,VALID,92.7138,VALID,0,VALID,24.8327,VALID,5,VALID,0,
2009-12-28, 03:05:04,VALID,1001.34,VALID,0,VALID,92.7977,VALID,0.100563,VALID,24.7919,VALID,5,VALID,0,
2009-12-28, 03:06:04,VALID,1001.36,VALID,0,VALID,92.8587,VALID,0,VALID,24.7724,VALID,5,VALID,0,
2009-12-28, 03:07:04,VALID,1001.34,VALID,0,VALID,92.9655,VALID,0,VALID,24.7529,VALID,5,VALID,0,
2009-12-28, 03:08:04,VALID,1001.35,VALID,0,VALID,93.0266,VALID,0,VALID,24.714,VALID,6,VALID,0,
2009-12-28, 03:09:04,VALID,1001.36,VALID,0,VALID,93.0418,VALID,0,VALID,24.675,VALID,6,VALID,0,
2009-12-28, 03:10:04,VALID,1001.36,VALID,0,VALID,93.1563,VALID,0,VALID,24.7159,VALID,6,VALID,0,
2009-12-28, 03:11:04,VALID,1001.34,VALID,0,VALID,93.1944,VALID,0,VALID,24.6556,VALID,6,VALID,0,
2009-12-28, 03:12:04,VALID,1001.35,VALID,0,VALID,93.2249,VALID,0,VALID,24.6361,VALID,14,VALID,0,
2009-12-28, 03:13:04,VALID,1001.35,VALID,0,VALID,93.2783,VALID,0,VALID,24.6166,VALID,14,VALID,0,
2009-12-28, 03:14:04,VALID,1001.36,VALID,0,VALID,93.3088,VALID,0,VALID,24.6185,VALID,14,VALID,0,
2009-12-28, 03:15:04,VALID,1001.37,VALID,0,VALID,93.3851,VALID,0,VALID,24.5777,VALID,12,VALID,0,
2009-12-28, 03:16:04,VALID,1001.41,VALID,0,VALID,93.469,VALID,0,VALID,24.5777,VALID,8,VALID,0,
2009-12-28, 03:17:04,VALID,1001.41,VALID,0,VALID,93.5453,VALID,0,VALID,24.6185,VALID,8,VALID,0,
2009-12-28, 03:18:04,VALID,1001.4,VALID,0,VALID,93.6064,VALID,0.100563,VALID,24.5972,VALID,7,VALID,0,
2009-12-28, 03:19:04,VALID,1001.37,VALID,0,VALID,93.614,VALID,0.100563,VALID,24.5777,VALID,7,VALID,0,
2009-12-28, 03:20:04,VALID,1001.39,VALID,0,VALID,93.5758,VALID,0.100563,VALID,24.5369,VALID,7,VALID,0,
2009-12-28, 03:21:04,VALID,1001.37,VALID,0,VALID,93.553,VALID,0.100563,VALID,24.5193,VALID,7,VALID,0,
2009-12-28, 03:22:04,VALID,1001.37,VALID,0,VALID,93.5453,VALID,0.100563,VALID,24.5017,VALID,7,VALID,0,
2009-12-28, 03:23:04,VALID,1001.35,VALID,0,VALID,93.5453,VALID,0.100563,VALID,24.4609,VALID,7,VALID,0,
2009-12-28, 03:24:04,VALID,1001.3,VALID,0,VALID,93.5911,VALID,0.100563,VALID,24.4414,VALID,7,VALID,0,
2009-12-28, 03:25:04,VALID,1001.29,VALID,0,VALID,93.7132,VALID,0.100563,VALID,24.4609,VALID,3,VALID,0,
2009-12-28, 03:26:04,VALID,1001.29,VALID,0,VALID,93.82,VALID,0,VALID,24.4609,VALID,2,VALID,0,
2009-12-28, 03:27:04,VALID,1001.29,VALID,0,VALID,93.8657,VALID,0.100563,VALID,24.4804,VALID,2,VALID,0,
2009-12-28, 03:28:04,VALID,1001.33,VALID,0,VALID,93.9497,VALID,0.100563,VALID,24.5388,VALID,345,VALID,0,
2009-12-28, 03:29:04,VALID,1001.34,VALID,0,VALID,94.0717,VALID,0,VALID,24.599,VALID,325,VALID,0,
2009-12-28, 03:30:04,VALID,1001.36,VALID,0,VALID,94.1556,VALID,0,VALID,24.6788,VALID,341,VALID,0,
2009-12-28, 03:31:04,VALID,1001.38,VALID,0,VALID,94.1404,VALID,0,VALID,24.6964,VALID,341,VALID,0,
2009-12-28, 03:32:04,VALID,1001.39,VALID,0,VALID,94.1556,VALID,0,VALID,24.7548,VALID,350,VALID,0,
2009-12-28, 03:33:04,VALID,1001.41,VALID,0,VALID,94.1328,VALID,0,VALID,24.7937,VALID,345,VALID,0,
2009-12-28, 03:34:04,VALID,1001.41,VALID,0,VALID,94.0794,VALID,0,VALID,24.8735,VALID,345,VALID,0,
2009-12-28, 03:35:04,VALID,1001.43,VALID,0,VALID,93.9649,VALID,0,VALID,24.8911,VALID,10,VALID,0,
2009-12-28, 03:36:04,VALID,1001.41,VALID,0,VALID,93.7818,VALID,0,VALID,24.9106,VALID,4,VALID,0,
2009-12-28, 03:37:04,VALID,1001.41,VALID,0,VALID,93.5911,VALID,0,VALID,24.9495,VALID,353,VALID,0,
2009-12-28, 03:38:04,VALID,1001.41,VALID,0,VALID,93.4233,VALID,0,VALID,24.969,VALID,358,VALID,0.523047,
2009-12-28, 03:39:04,VALID,1001.41,VALID,0,VALID,93.2554,VALID,0,VALID,24.9866,VALID,357,VALID,0.00703125,
2009-12-28, 03:40:04,VALID,1001.46,VALID,0,VALID,93.0647,VALID,0,VALID,25.0469,VALID,349,VALID,0.401953,
2009-12-28, 03:41:04,VALID,1001.47,VALID,0,VALID,92.9121,VALID,0,VALID,25.0469,VALID,349,VALID,0.279297,
2009-12-28, 03:42:04,VALID,1001.48,VALID,0,VALID,92.7062,VALID,0,VALID,25.0877,VALID,349,VALID,0,
2009-12-28, 03:43:04,VALID,1001.49,VALID,0,VALID,92.5917,VALID,0,VALID,25.0858,VALID,350,VALID,0.384766,
2009-12-28, 03:44:04,VALID,1001.51,VALID,0,VALID,92.5002,VALID,0,VALID,25.1229,VALID,12,VALID,0.569141,
2009-12-28, 03:45:04,VALID,1001.5,VALID,0,VALID,92.3857,VALID,0.100563,VALID,25.121,VALID,332,VALID,0.376563,
2009-12-28, 03:46:04,VALID,1001.47,VALID,0,VALID,92.2027,VALID,0.100563,VALID,25.1813,VALID,351,VALID,0.256641,
2009-12-28, 03:47:04,VALID,1001.48,VALID,0,VALID,91.9128,VALID,0,VALID,25.1813,VALID,351,VALID,0.295312,
2009-12-28, 03:48:04,VALID,1001.45,VALID,0,VALID,91.7144,VALID,0,VALID,25.2027,VALID,351,VALID,0.339063,
2009-12-28, 03:49:04,VALID,1001.44,VALID,0,VALID,91.5542,VALID,0,VALID,25.1813,VALID,351,VALID,0.1625,
2009-12-28, 03:50:04,VALID,1001.43,VALID,0,VALID,91.3253,VALID,0,VALID,25.1618,VALID,351,VALID,0,
2009-12-28, 03:51:04,VALID,1001.38,VALID,0,VALID,91.2262,VALID,0,VALID,25.1442,VALID,351,VALID,0.0324219,
2009-12-28, 03:52:04,VALID,1001.38,VALID,0,VALID,91.5618,VALID,0.100563,VALID,25.1034,VALID,344,VALID,0.580859,
2009-12-28, 03:53:04,VALID,1001.37,VALID,0,VALID,91.6534,VALID,0.100563,VALID,25.1423,VALID,350,VALID,0.648438,